STARLINK-1477 (45754 NORAD) Tracking and Keplerian Element Data

This shows tracking and keplerian element data for the satellite.

Feedback or suggestion? Click here.




ElementValue
Catalog45754
NameSTARLINK-1477
Epoch Orbit182
Epoch Day191.91670139
Epoch Year2020
RAAN166.175
Inclination53.0018
Eccentricity0.0001223
Argument of Perigee79.2906
Mean Anonmoly28.1408
Mean Motion15.62698699
Decay Rate0.00088576
L11 45754U 20038AA 20191.91670139 .00088576 00000-0 96469-3 0 9998
L22 45754 53.0018 166.1750 0001223 79.2906 28.1408 15.62698699 1826

Live tracking and technical data element details for STARLINK-1477 (NORAD 45754). STARLINK-1477 can be tracked NOW for your location showing map with azimuth and elevation plus other details from your city location.

Track the satellite on the map from your city or location and see movement details for azimuth, elevation, latitude, longitude, range, height, and movement on the map or in text.







IsCatalogInMostPopularTable: catalog: 45754, numindb: 4
Update: records affected: 1



GetName: 45754 STARLINK-1477

Hit Count: updated at: Fri, 10 Jul 2020 16:23:50 GMT